TimeMDT,TemperatureF,Dew PointF,Humidity,Sea Level PressureIn,VisibilityMPH,Wind Direction,Wind SpeedMPH,Gust SpeedMPH,PrecipitationIn,Events,Conditions,WindDirDegrees,DateUTC
12:53 AM,48.9,26.1,41,30.09,10.0,Calm,Calm,-,N/A,,Clear,0,2013-05-12 06:53:00
1:53 AM,44.1,27.0,51,30.12,10.0,NW,3.5,-,N/A,,Scattered Clouds,320,2013-05-12 07:53:00
2:53 AM,41.0,26.1,55,30.13,10.0,Calm,Calm,-,N/A,,Scattered Clouds,0,2013-05-12 08:53:00
3:53 AM,42.1,26.1,53,30.12,10.0,West,4.6,-,N/A,,Scattered Clouds,260,2013-05-12 09:53:00
4:53 AM,41.0,26.1,55,30.14,10.0,North,4.6,-,N/A,,Clear,10,2013-05-12 10:53:00
5:53 AM,37.9,26.1,62,30.15,10.0,North,3.5,-,N/A,,Clear,350,2013-05-12 11:53:00
6:53 AM,48.0,28.0,46,30.13,10.0,WSW,10.4,-,N/A,,Clear,250,2013-05-12 12:53:00
7:53 AM,54.0,28.0,37,30.13,10.0,WSW,17.3,-,N/A,,Clear,250,2013-05-12 13:53:00
8:53 AM,59.0,28.0,31,30.14,10.0,WSW,13.8,-,N/A,,Clear,250,2013-05-12 14:53:00
9:53 AM,63.0,28.0,27,30.10,10.0,WSW,12.7,-,N/A,,Clear,250,2013-05-12 15:53:00
10:53 AM,66.0,28.0,24,30.09,10.0,West,12.7,-,N/A,,Clear,280,2013-05-12 16:53:00
11:53 AM,68.0,26.1,21,30.08,10.0,West,9.2,19.6,N/A,,Clear,260,2013-05-12 17:53:00
12:53 PM,71.1,26.1,19,30.05,10.0,NW,12.7,23.0,N/A,,Partly Cloudy,320,2013-05-12 18:53:00
1:53 PM,71.1,25.0,18,30.05,10.0,WNW,9.2,16.1,N/A,,Scattered Clouds,300,2013-05-12 19:53:00
2:53 PM,75.0,24.1,15,30.03,10.0,West,15.0,23.0,N/A,,Scattered Clouds,270,2013-05-12 20:53:00
3:53 PM,75.0,23.0,14,30.00,10.0,WNW,11.5,21.9,N/A,,Partly Cloudy,290,2013-05-12 21:53:00
4:53 PM,75.9,24.1,15,29.99,10.0,NW,10.4,17.3,N/A,,Scattered Clouds,310,2013-05-12 22:53:00
5:53 PM,75.0,25.0,16,29.99,10.0,West,12.7,-,N/A,,Partly Cloudy,270,2013-05-12 23:53:00
6:53 PM,73.9,24.1,16,29.95,10.0,NW,10.4,-,N/A,,Clear,320,2013-05-13 00:53:00
7:53 PM,68.0,26.1,21,29.95,10.0,North,9.2,-,N/A,,Partly Cloudy,10,2013-05-13 01:53:00
8:53 PM,57.9,27.0,31,29.97,10.0,North,9.2,-,N/A,,Clear,10,2013-05-13 02:53:00
9:53 PM,55.9,28.9,36,29.99,10.0,NNE,3.5,-,N/A,,Clear,30,2013-05-13 03:53:00
10:53 PM,52.0,28.9,41,30.01,10.0,West,4.6,-,N/A,,Clear,280,2013-05-13 04:53:00
11:53 PM,51.1,28.9,43,30.01,10.0,North,3.5,-,N/A,,Clear,10,2013-05-13 05:53:00